AV279 Weather Reports


time (UTC)temp
C
wind
direction
speed
KPH
gust
KPH
rain 1hr
cm
rain 24hr
cm
rain mn
cm
humidity
%
barometer
mb
20260831231618 17 225 3.2 6.4 0.00 1.19 1.19 94 1017.4
20260831230629 17 225 3.2 6.4 0.00 1.19 1.19 94 1017.4
20260831225629 17 203 3.2 4.8 0.00 1.19 1.19 93 1017.5
20260831224618 17 225 4.8 9.7 0.00 1.19 1.19 93 1017.5
20260831223618 17 225 3.2 4.8 0.00 1.19 1.19 93 1017.5
20260831222650 17 203 4.8 8.0 0.00 1.19 1.19 93 1017.5
20260831221618 17 225 3.2 6.4 0.00 1.19 1.19 93 1017.4
20260831220640 17 203 3.2 4.8 0.00 1.19 1.19 93 1017.4
20260831215618 16 225 3.2 4.8 0.00 1.19 1.19 93 1017.3
20260831214629 16 225 4.8 6.4 0.05 1.19 1.19 93 1017.4
20260831213618 16 203 1.6 3.2 0.15 1.19 1.19 92 1017.2
20260831212618 16 203 1.6 3.2 0.43 1.19 1.19 92 1017.2
20260831211618 16 0.0 0.0 0.43 1.19 1.19 91 1017.0
20260831210638 16 225 1.6 3.2 0.43 1.19 1.19 91 1017.0
20260831205619 16 248 1.6 4.8 0.43 1.19 1.19 90 1017.2
20260831204619 16 248 1.6 3.2 0.38 1.14 1.14 89 1017.1
20260831203640 18 270 6.4 11.3 0.28 1.04 1.04 86 1017.1
20260831202640 18 225 3.2 4.8 0.00 0.76 0.76 86 1017.0
20260831201618 18 225 3.2 6.4 0.00 0.76 0.76 85 1017.0
20260831200629 18 203 3.2 6.4 0.00 0.76 0.76 83 1016.8
20260831195649 18 0 1.6 1.6 0.00 0.76 0.76 81 1016.8
20260831194618 18 0.0 1.6 0.00 0.76 0.76 82 1016.8
20260831193618 18 0 1.6 3.2 0.00 0.76 0.76 86 1016.6
20260831192629 18 293 3.2 4.8 0.00 0.76 0.76 86 1016.5
20260831191641 18 270 3.2 6.4 0.00 0.76 0.76 85 1016.1
20260831190618 18 270 4.8 11.3 0.00 0.79 0.76 85 1015.8
20260831185618 18 248 4.8 9.7 0.00 0.79 0.76 84 1015.7
20260831184620 18 225 9.7 19.3 0.00 0.79 0.76 83 1015.7
20260831183640 18 248 6.4 9.7 0.00 0.81 0.76 83 1015.4
20260831182649 19 225 4.8 6.4 0.00 0.84 0.76 82 1015.4
20260831181618 19 248 9.7 25.7 0.00 0.84 0.76 82 1015.1
20260831180826 19 248 4.8 6.4 0.00 0.84 0.76 81 1015.1
20260831175820 20 248 6.4 12.9 0.00 0.84 0.76 81 1015.0
20260831174818 20 248 8.0 14.5 0.00 0.84 0.76 81 1015.0
20260831173818 20 225 16.1 30.6 0.00 0.84 0.76 80 1014.8
20260831172820 20 270 8.0 14.5 0.00 0.84 0.76 79 1014.7
20260831171818 20 225 8.0 17.7 0.00 0.84 0.76 78 1014.7
20260831170820 20 293 11.3 20.9 0.00 0.84 0.76 78 1014.6
20260831165840 20 248 9.7 16.1 0.00 0.84 0.76 78 1014.6
20260831164851 20 270 9.7 19.3 0.00 0.84 0.76 78 1014.5
20260831163841 21 248 8.0 12.9 0.00 0.84 0.76 77 1014.4
20260831163019 21 270 8.0 16.1 0.00 0.84 0.76 76 1014.2
20260831162320 21 248 8.0 14.5 0.00 0.84 0.76 75 1014.1
20260831161330 21 270 9.7 14.5 0.00 0.84 0.76 75 1014.1
20260831160350 21 270 8.0 16.1 0.00 0.84 0.76 74 1014.0
20260831155320 21 248 9.7 17.7 0.00 0.86 0.76 74 1013.8
20260831154320 21 248 8.0 14.5 0.00 0.91 0.76 74 1013.7
20260831153320 21 248 8.0 12.9 0.00 0.97 0.76 72 1013.5
20260831152320 21 270 8.0 12.9 0.00 0.97 0.76 72 1013.5
20260831151320 21 225 6.4 12.9 0.00 0.97 0.76 70 1013.4
20260831150352 21 293 9.7 16.1 0.00 0.97 0.76 70 1013.4
20260831145352 21 248 9.7 14.5 0.00 0.97 0.76 70 1013.3
20260831144401 21 270 6.4 11.3 0.00 0.97 0.76 70 1013.3
20260831143324 22 225 8.0 14.5 0.00 0.97 0.76 69 1013.1
20260831142320 22 248 8.0 11.3 0.00 0.97 0.76 70 1012.9
20260831141513 21 270 6.4 12.9 0.00 0.97 0.76 68 1012.9
20260831140432 22 248 8.0 22.5 0.00 0.97 0.76 67 1012.8
20260831135400 21 270 4.8 9.7 0.00 0.97 0.76 67 1012.7
20260831134320 21 270 8.0 14.5 0.00 0.97 0.76 66 1012.5
20260831133340 22 248 8.0 12.9 0.00 0.97 0.76 64 1012.4
20260831132330 22 248 8.0 12.9 0.00 0.97 0.76 66 1012.4
20260831131320 22 248 6.4 9.7 0.00 0.97 0.76 66 1012.1
20260831130319 21 270 6.4 12.9 0.00 0.97 0.76 68 1011.9
20260831125339 20 270 6.4 12.9 0.00 0.97 0.76 72 1011.9
20260831124527 20 293 4.8 8.0 0.00 0.97 0.76 72 1011.7
20260831124220 20 270 6.4 11.3 0.00 0.97 0.76 73 1011.7
20260831123219 20 270 4.8 9.7 0.00 0.97 0.76 72 1011.6
20260831122219 20 225 3.2 11.3 0.00 0.97 0.76 72 1011.4
20260831121220 20 270 8.0 16.1 0.00 0.97 0.76 71 1011.4
20260831120220 21 248 6.4 11.3 0.00 0.97 0.76 69 1011.1
20260831115219 21 270 8.0 12.9 0.00 0.97 0.76 68 1011.0
20260831114230 21 270 9.7 16.1 0.00 0.97 0.76 68 1010.9
20260831113241 21 270 9.7 22.5 0.00 0.97 0.76 69 1010.8
20260831112230 21 248 4.8 6.4 0.00 0.97 0.76 68 1010.7
20260831111413 21 270 6.4 11.3 0.00 0.97 0.76 70 1010.6
20260831111151 21 270 8.0 16.1 0.00 0.97 0.76 70 1010.5
20260831110200 20 270 8.0 16.1 0.00 0.97 0.76 75 1010.5
20260831105200 20 248 9.7 16.1 0.00 0.97 0.76 72 1010.5
20260831104210 20 270 9.7 16.1 0.00 0.97 0.76 72 1010.4
20260831103119 20 293 8.0 12.9 0.00 0.97 0.76 72 1010.2
20260831102141 20 270 3.2 8.0 0.00 0.97 0.76 73 1010.2
20260831101152 20 248 9.7 17.7 0.00 0.97 0.76 73 1010.2
20260831100119 20 270 8.0 17.7 0.00 0.97 0.76 72 1009.9
20260831095151 20 270 8.0 12.9 0.00 0.97 0.76 75 1009.7
20260831094119 20 270 9.7 16.1 0.00 0.97 0.76 75 1009.6
20260831093119 20 270 8.0 14.5 0.00 0.97 0.76 79 1009.5
20260831092119 19 293 6.4 9.7 0.00 0.97 0.76 83 1009.3
20260831091119 19 248 6.4 12.9 0.00 0.97 0.76 85 1009.3
20260831090119 18 225 6.4 9.7 0.00 0.97 0.76 86 1009.2
20260831085141 18 225 16.1 24.1 0.00 0.97 0.76 88 1009.1
20260831084129 17 270 4.8 9.7 0.00 0.97 0.76 91 1008.9
20260831083338 17 270 6.4 9.7 0.00 0.97 0.76 92 1008.7
20260831082719 16 225 8.0 11.3 0.00 0.97 0.76 92 1008.7
20260831081740 16 225 6.4 8.0 0.00 0.97 0.76 92 1008.7
20260831080719 16 248 8.0 11.3 0.00 0.97 0.76 92 1008.6
20260831075719 16 270 6.4 9.7 0.03 0.97 0.76 92 1008.5
20260831074719 16 225 6.4 11.3 0.03 0.97 0.76 92 1008.3
20260831073929 16 225 9.7 17.7 0.03 0.97 0.76 93 1008.3
20260831072839 15 225 9.7 16.1 0.05 0.97 0.76 93 1008.3
20260831071819 15 225 6.4 11.3 0.05 0.97 0.76 93 1008.3
20260831070819 15 225 8.0 14.5 0.05 0.97 0.76 93 1008.2
20260831065830 15 248 4.8 12.9 0.05 0.94 0.74 93 1008.2
20260831065036 15 225 8.0 14.5 0.05 0.94 0.74 93 1008.1
20260831063839 15 248 8.0 17.7 0.05 0.94 0.74 93 1008.0
20260831062819 15 248 8.0 11.3 0.05 0.91 0.71 92 1008.1
20260831061819 16 225 3.2 6.4 0.05 0.91 0.71 92 1007.9
20260831060830 16 225 9.7 17.7 0.05 0.91 0.71 92 1007.9
20260831055850 16 248 9.7 17.7 0.03 0.89 0.71 92 1007.8
20260831054819 16 225 11.3 17.7 0.00 0.89 0.69 92 1007.7
20260831053819 16 225 11.3 24.1 0.00 0.89 0.69 92 1007.6
20260831052819 16 248 6.4 11.3 0.00 0.89 0.69 92 1007.6
20260831051829 16 203 16.1 20.9 0.00 0.89 0.69 92 1007.0
20260831050818 16 225 11.3 22.5 0.00 0.89 0.69 92 1007.1
20260831045840 16 225 11.3 16.1 0.00 0.89 0.69 92 1007.2
20260831044840 16 203 14.5 20.9 0.00 0.89 0.69 92 1006.9
20260831043829 16 248 9.7 20.9 0.03 0.89 0.69 92 1006.9
20260831042819 16 203 14.5 20.9 0.03 0.89 0.69 93 1006.9
20260831041850 16 225 11.3 16.1 0.03 0.89 0.69 92 1006.8
20260831040829 16 203 17.7 27.4 0.03 0.89 0.69 92 1006.8
20260831035838 16 225 14.5 24.1 0.03 0.89 0.69 93 1006.9
20260831034829 16 225 11.3 17.7 0.05 0.89 0.69 93 1007.0
20260831033818 16 248 12.9 20.9 0.15 0.86 0.66 93 1007.1
20260831032818 16 225 12.9 22.5 0.15 0.86 0.66 93 1007.3
20260831031818 16 225 9.7 16.1 0.15 0.89 0.66 93 1007.2
20260831030818 16 248 9.7 17.7 0.15 0.89 0.66 94 1007.2
20260831025819 16 248 9.7 16.1 0.15 0.89 0.66 94 1007.5
20260831024829 16 248 4.8 8.0 0.15 0.89 0.64 94 1007.6
20260831023818 16 225 9.7 17.7 0.03 0.76 0.51 94 1007.4
20260831023015 16 225 11.3 16.1 0.00 0.74 0.51 94 1007.6
20260831022550 16 225 12.9 19.3 0.00 0.74 0.51 94 1007.5
20260831021551 16 203 8.0 19.3 0.00 0.74 0.51 94 1007.7
20260831020519 16 248 6.4 11.3 0.00 0.74 0.51 94 1007.6
20260831015518 16 203 6.4 11.3 0.05 0.74 0.51 94 1007.7
20260831014529 16 225 6.4 8.0 0.05 0.74 0.51 94 1007.9
20260831013519 16 225 8.0 12.9 0.05 0.74 0.51 94 1008.0
20260831012550 16 225 3.2 6.4 0.20 0.74 0.51 93 1008.2
20260831011519 16 203 4.8 9.7 0.46 0.74 0.51 94 1008.1
20260831010518 16 225 6.4 12.9 0.51 0.74 0.51 94 1008.5
20260831005518 16 203 3.2 6.4 0.46 0.71 0.46 93 1008.4
20260831004518 16 225 4.8 8.0 0.46 0.71 0.46 93 1008.3
20260831003519 16 225 6.4 11.3 0.46 0.71 0.46 93 1008.3
20260831002518 16 270 3.2 4.8 0.30 0.53 0.30 92 1008.6
20260831001538 16 225 8.0 12.9 0.05 0.28 0.05 91 1008.1
20260831000529 17 203 11.3 14.5 0.00 0.23 0.00 91 1008.4
20260830235518 17 225 8.0 12.9 0.00 0.23 0.23 91 1008.2
20260830234519 17 248 8.0 12.9 0.00 0.25 0.23 91 1008.2
20260830233714 17 225 11.3 17.7 0.00 0.25 0.23 91 1008.3
20260830233419 17 203 9.7 16.1 0.00 0.25 0.23 91 1008.2
20260830232613 17 203 12.9 17.7 0.00 0.25 0.23 91 1008.2